Location: Offord D�Arcy
(52.2667°N, 0.2000°W)
Time: 07:24:47
(UTC+00:00)

Daily predictions for brighter satellites

Satellite Brightness Start Highest point End
(mag) Time Altitude Azimuth Time Altitude Azimuth Time Altitude Azimuth
Cosmos 1500 Rocket 3.6 20:11:28 10° SSW 20:15:47 84° WNW 20:20:09 10° N
Spot 2 Rocket 4.1 20:12:30 10° SE 20:17:19 44° ENE 20:22:10 10° N
Cosmos 2322 Rocket 4.0 20:13:38 10° NNW 20:17:59 22° NNE 20:22:20 10° E
Meteor 1-4 Rocket 3.5 20:15:47 10° N 20:18:58 31° ENE 20:22:05 10° SE
Ariane Rocket 4.5 20:14:53 10° SSW 20:19:36 38° W 20:24:20 10° NNW
USA 186 4.1 20:19:42 10° SW 20:20:51 13° W 20:21:59 10° WNW
Resurs 1-3 3.9 20:16:32 10° S 20:20:55 70° WSW 20:25:19 10° NNW
CZ-2C R/B 2.7 20:17:56 10° NNE 20:23:08 82° WNW 20:28:20 10° SSW
Terra 3.4 20:21:56 10° ESE 20:25:29 21° ENE 20:29:03 10° N
Cosmos 407 Rocket 4.0 20:21:05 10° S 20:25:58 38° ESE 20:30:51 10° NE
USA 234 3.3 20:19:32 10° ESE 20:26:06 88° SSW 20:32:41 10° WNW
Cosmos 1666 Rocket 4.2 20:23:19 10° SSE 20:27:14 35° E 20:31:12 10° NNE
Cosmos 1238 Rocket 4.4 20:29:01 10° E 20:29:15 10° E 20:29:31 10° E
Meteor 1-27 Rocket 3.9 20:23:44 10° N 20:29:40 74° ENE 20:35:36 10° SSE
Meteor 1-10 Rocket 4.5 20:24:34 10° NNW 20:30:13 75° W 20:35:57 10° S
Cosmos 2360 Rocket 4.2 20:28:01 10° NNW 20:31:55 19° NNE 20:35:49 10° ENE
MetOp-B 4.2 20:26:55 10° SSE 20:32:15 73° ENE 20:37:38 10° NNW
BREEZE-M DEB (TANK) 4.3 20:31:31 10° W 20:35:30 17° WSW 20:37:53 10° S
ERBS 2.3 20:33:28 10° WSW 20:36:48 81° NNW 20:40:08 10° ENE
Cosmos 1805 Rocket 3.6 20:34:28 10° S 20:38:54 85° E 20:43:23 10° NNE
SPOT 5 3.7 20:35:54 10° SE 20:39:37 31° ENE 20:43:28 10° N
Cosmos 1980 Rocket 2.3 20:36:05 10° NNW 20:41:47 68° NE 20:47:05 12° SE
SPOT 1/Viking Rocket 3.8 20:40:01 10° SSE 20:45:09 61° ENE 20:50:19 10° N
Genesis I 3.2 20:43:34 10° NW 20:47:27 74° NE 20:50:44 14° SE
SL-4 R/B 3.0 20:44:28 10° SSW 20:47:34 23° SSE 20:50:31 10° E
BREEZE-M DEB (TANK) 2.6 20:45:38 10° WSW 20:48:14 49° SSE 20:54:26 10° E
ATLAS 5 CENTAUR R/B 3.5 20:45:04 10° WNW 20:50:14 37° WSW 20:56:08 10° S
Cosmos 405 Rocket 4.3 20:49:21 13° ESE 20:51:02 17° E 20:53:32 10° NE
Cosmos 1140 Rocket 3.8 20:46:33 10° S 20:51:34 48° ESE 20:56:36 10° NE
Cosmos 389 Rocket 4.0 20:50:12 10° NNW 20:53:21 34° W 20:56:30 10° SSW
Cosmos 1812 3.9 20:52:46 10° NNW 20:56:26 42° W 21:00:04 10° SSW
Cosmos 1697 Rocket 3.1 20:51:57 10° NW 20:57:29 60° WSW 21:02:59 10° SSE
USA 32 4.4 20:53:06 10° SSE 20:58:05 46° E 21:03:04 10° NNE
Cosmos 1633 Rocket 3.1 20:56:05 10° S 21:00:27 61° E 21:04:50 10° NNE
Cosmos 1833 Rocket 2.6 20:54:59 10° SSW 21:00:33 70° ESE 21:06:11 10° NE
Okean 1-7 4.2 21:02:04 10° N 21:05:52 29° ENE 21:08:30 16° ESE
Cosmos 1867 4.1 21:01:56 10° S 21:06:51 36° ESE 21:11:48 10° NE
CENTAUR R/B 3.8 21:04:46 15° SE 21:07:28 20° ESE 21:12:04 10° ENE
Cosmos 1707 Rocket 4.2 21:03:44 10° NNW 21:08:00 54° W 21:12:13 10° S
Resurs 01 Rocket 3.1 21:07:01 10° SSW 21:11:04 35° W 21:15:10 10° NNW
FALCON 9 DEB 4.2 21:10:25 10° SSW 21:13:20 25° SE 21:15:21 15° E
Landsat 7 4.1 21:08:59 10° S 21:13:42 69° WSW 21:18:28 10° NNW
Cosmos 1441 Rocket 4.3 21:11:28 10° SSW 21:15:08 45° WNW 21:18:46 10° N
deb Kosmos-1763 4.2 21:14:17 10° S 21:17:48 51° ESE 21:21:22 10° NE
Cosmos 44 4.4 21:14:25 10° NW 21:18:54 38° NE 21:23:09 12° E
Cosmos 192 4.3 21:14:21 10° NNW 21:19:16 84° WSW 21:22:57 18° SSE
ATLAS 5 CENTAUR R/B 2.5 21:17:32 10° NW 21:19:39 34° NNE 21:23:25 11° E
Cosmos 676 Rocket 4.2 21:15:17 10° S 21:20:26 53° ESE 21:25:39 10° NNE
IGS 5A 4.1 21:17:35 11° S 21:21:30 54° W 21:25:35 10° NNW
Meteor 1-25 Rocket 4.3 21:17:53 12° S 21:22:57 57° E 21:28:27 10° NNE
Cosmos 1470 Rocket 3.6 21:19:31 14° S 21:23:09 60° E 21:27:30 10° NNE
Cosmos 1934 Rocket 4.1 21:18:53 10° S 21:25:16 87° W 21:31:42 10° N
Aureole 1 Rocket 4.4 21:19:29 10° S 21:26:23 71° ESE 21:34:41 10° NNE
GP-B 3.2 21:21:59 10° N 21:26:26 77° W 21:30:41 11° S
SWAS 4.4 21:23:44 10° SSW 21:28:04 89° SE 21:32:26 10° NNE
USA 267 3.2 21:25:26 10° ENE 21:32:00 77° SSE 21:38:34 10° SW
Cosmos 921 Rocket 2.9 21:28:02 10° NNW 21:32:18 86° WSW 21:34:50 23° SSE
NOSS 3-2 (A) 3.7 21:27:27 10° S 21:32:49 43° ESE 21:38:57 10° NE
Cosmos 1862 Rocket 4.1 21:30:08 10° NNW 21:34:34 59° W 21:38:11 15° S
Cosmos 841 Rocket 4.3 21:33:49 10° NNW 21:38:46 42° NE 21:42:00 20° ESE
NOSS 3-2 (C) 4.1 21:35:51 19° SSE 21:38:57 31° ESE 21:44:31 10° ENE
COSMOS 2406 4.1 21:33:30 10° SW 21:39:08 53° NW 21:44:45 10° NNE
ERS-1 Rocket 3.1 21:36:08 18° S 21:39:55 73° WSW 21:44:58 10° NNW
SAR-Lupe-2 3.5 21:36:23 10° NNE 21:39:58 65° ESE 21:41:55 25° S
Cosmos 540 Rocket 4.3 21:35:19 10° NNW 21:40:13 41° NE 21:43:22 20° ESE
OPS 6432 4.4 21:36:35 10° SSW 21:40:30 59° SE 21:43:36 10° NE
SL-16 R/B 2.4 21:35:01 10° NNW 21:40:40 62° NE 21:44:17 22° SE
Lacrosse 5 1.8 21:37:05 10° WNW 21:42:12 89° NNE 21:45:31 22° ESE
Cosmos 468 Rocket 4.0 21:37:11 10° NNW 21:42:33 81° ENE 21:45:45 25° SSE
Cosmos 2219 Rocket 4.1 21:46:47 10° NNW 21:51:14 23° NE 21:55:41 10° E
Cosmos 1954 Rocket 4.0 21:48:25 10° SSW 21:53:45 90° WNW 21:59:07 10° NNE
Cosmos 2082 Rocket 2.3 21:48:06 10° SSW 21:53:50 82° WNW 21:59:32 10° NNE
Cosmos 1184 Rocket 3.8 21:53:55 13° SW 21:56:41 46° WNW 21:59:53 10° N
CARTOSAT-1 4.4 21:57:11 19° SSW 22:00:03 45° W 22:04:14 10° NNW
Terra 2.0 22:00:02 25° S 22:02:48 69° WSW 22:07:34 10° NNW
Cosmos 2322 Rocket 2.3 21:57:21 10° NNW 22:03:04 72° ENE 22:06:13 28° SE
Cosmos 1933 Rocket 3.6 22:01:23 20° SSW 22:04:24 79° WNW 22:08:52 10° N
Okean 1 3.8 22:01:05 10° NNW 22:05:03 56° W 22:07:06 26° SSW
Cosmos 1238 Rocket 3.1 22:06:53 23° SW 22:08:26 43° WNW 22:11:18 10° N
Cosmos 1602 3.9 22:06:47 25° SSW 22:09:00 73° WNW 22:12:57 10° N
Cosmos 2100 Rocket 4.1 22:05:35 26° SSE 22:09:02 59° E 22:15:05 10° NNE
Cosmos 1437 Rocket 2.8 22:05:37 10° NNW 22:09:26 70° W 22:10:50 36° S
USA 234 4.0 22:06:06 22° S 22:09:38 38° SW 22:15:39 10° WNW
Cosmos 1242 Rocket 4.3 22:08:26 10° NNE 22:11:17 21° ENE 22:12:07 20° E
Cosmos 1605 Rocket 4.3 22:06:04 10° SSW 22:12:09 63° WNW 22:18:12 10° N
ERBS 3.9 22:10:17 10° WNW 22:13:24 36° N 22:16:29 10° ENE
Cosmos 1869 Rocket 3.7 22:13:01 36° SSE 22:14:33 58° E 22:18:57 10° NNE
Cosmos 2360 Rocket 2.6 22:11:37 10° NNW 22:17:13 55° NE 22:20:19 26° ESE
SPOT 5 3.8 22:15:08 19° SSW 22:17:40 36° W 22:21:44 10° NNW
COSMOS 2428 4.3 22:12:58 10° NNW 22:17:54 28° NE 22:22:37 11° E
MTI 3.8 22:15:28 10° NNE 22:18:29 53° E 22:18:29 53° E
JB-3 4.2 22:15:16 10° NNE 22:19:17 78° ESE 22:20:44 38° S
ATLAS 3B R/B 3.6 22:21:13 25° SE 22:22:06 26° ESE 22:27:21 10° ENE
Cosmos 1703 Rocket 4.1 22:17:59 10° NNW 22:22:14 52° W 22:24:15 28° SSW
Geosat 3.9 22:20:48 34° SSE 22:23:06 90° E 22:28:10 10° NNW
Iridium 4 Rocket 3.0 22:21:45 40° SSE 22:23:13 69° E 22:27:26 10° N
Cosmos 2173 Rocket 3.9 22:21:11 28° S 22:24:34 71° E 22:30:41 10° NNE
Cosmos 1980 Rocket 3.8 22:20:44 10° NW 22:25:20 26° WSW 22:28:51 14° SSW
Cosmos 1500 3.1 22:25:10 52° SSE 22:25:54 69° E 22:29:38 10° NNE
Cosmos 405 Rocket 3.6 22:24:28 20° SW 22:26:42 45° WNW 22:30:18 10° N
SL-4 R/B 1.6 22:23:00 10° WSW 22:26:45 62° SSE 22:27:13 55° SE
USA 238 DEB 3.6 22:22:02 10° SW 22:28:41 82° SE 22:35:42 10° NE
Cosmos 1763 Rocket 4.0 22:23:31 10° NNW 22:28:43 54° WSW 22:31:09 30° S
USA 238 3.6 22:22:09 10° SW 22:28:48 81° SE 22:35:48 10° NE
ALOS 2 3.7 22:27:44 26° ESE 22:29:16 33° ENE 22:33:14 10° N
Cosmos 1725 Rocket 4.4 22:27:19 30° SE 22:30:00 47° E 22:36:00 10° NNE
Meteor 1-14 Rocket 4.5 22:29:24 19° SSW 22:33:39 73° WNW 22:39:38 10° N
Cosmos 1536 3.6 22:34:39 34° ESE 22:34:56 35° E 22:38:35 10° NNE
Cosmos 2333 Rocket 3.3 22:32:11 10° NNW 22:37:37 40° NE 22:41:19 19° ESE
Cosmos 1666 3.1 22:37:32 42° E 22:37:40 42° E 22:41:14 10° NNE
Cosmos 1271 Rocket 4.3 22:36:54 10° N 22:40:00 23° ENE 22:40:47 22° E
Meteor 1-13 Rocket 4.1 22:35:31 10° NNW 22:41:06 89° ENE 22:43:23 37° SSE
Cosmos 1356 4.2 22:41:30 37° E 22:41:30 37° E 22:44:24 10° NNE
Cosmos 2237 Rocket 4.3 22:37:03 10° NNW 22:41:19 21° NNE 22:45:35 10° E
Cosmos 2016 Rocket 4.1 22:39:51 33° SSE 22:42:49 67° E 22:49:10 10° NNE
Okean 1-7 4.2 22:39:32 10° NNW 22:43:31 36° W 22:45:21 24° SW
Meteor 1-5 Rocket 4.3 22:40:38 32° S 22:43:36 79° E 22:49:34 10° NNE
Lacrosse 4 Rocket 3.6 22:45:23 13° E 22:45:23 13° E 22:46:31 10° ENE
Cosmos 2061 Rocket 4.0 22:41:23 33° SSE 22:44:13 68° E 22:50:22 10° NNE
MOS 1-B Rocket 3.8 22:38:33 10° NNE 22:44:19 69° ESE 22:46:43 35° S
Cosmos 2221 Rocket 3.5 22:40:45 10° N 22:45:14 88° ENE 22:46:29 48° SSE
Cosmos 1459 Rocket 4.0 22:42:36 27° SSW 22:46:14 86° WNW 22:52:38 10° N
Okean 3 3.6 22:45:07 10° NNW 22:49:24 70° W 22:50:30 47° SSW
FALCON 9 DEB 4.0 22:46:32 10° WSW 22:48:49 38° WSW 22:48:49 38° WSW
Cosmos 1867 4.2 22:44:55 10° WSW 22:50:17 57° NW 22:55:42 10° NE
Cosmos 1066 Rocket 4.3 22:45:49 10° N 22:51:35 68° ENE 22:53:46 38° SE
Cosmos 1733 Rocket 3.4 22:50:59 43° ESE 22:51:38 47° E 22:55:53 10° NNE
SL-27 R/B 2.2 22:53:09 79° W 22:53:15 81° WNW 22:56:36 10° NNE
Meteor 1-23 Rocket 4.4 22:47:33 10° N 22:53:23 67° ENE 22:55:42 37° SE
Thor Agena Rocket 3.6 22:50:30 10° NNE 22:55:32 61° ESE 22:57:00 43° SSE
Cosmos 1864 Rocket 4.5 22:53:22 36° SSE 22:56:01 70° E 23:02:15 10° NNE
CENTAUR R/B 2.5 22:51:50 16° SW 22:56:50 78° SE 23:04:09 10° NE
Cosmos 1850 Rocket 4.3 22:54:34 21° SW 22:58:10 68° WNW 23:03:27 10° NNE
Meteor 2-4 Rocket 4.4 22:52:54 10° NNW 22:58:21 46° W 23:00:58 27° SSW
Cosmos 44 3.6 22:55:34 10° NW 23:00:21 56° SW 23:01:33 44° S
Cosmos 1802 Rocket 4.1 22:58:41 30° SSW 23:02:08 81° W 23:08:32 10° N
Spot 4 4.0 23:06:33 44° SSW 23:07:56 65° WSW 23:12:45 10° NNW
Cosmos 1378 3.3 23:08:34 10° N 23:12:17 57° ENE 23:12:29 56° E
USA 267 3.7 23:08:31 10° ENE 23:14:59 64° N 23:21:27 10° W
Cosmos 2233 Rocket 4.1 23:14:31 39° SSE 23:16:54 66° E 23:23:11 10° NNE
Cosmos 1908 Rocket 4.3 23:18:33 35° ESE 23:18:55 36° E 23:22:57 10° NNE
Cosmos 841 Rocket 4.4 23:15:50 10° NW 23:20:38 38° WSW 23:22:05 31° SW
Cosmos 540 Rocket 4.3 23:17:03 10° NW 23:21:49 38° WSW 23:23:10 32° SW
NOSS 3-2 (A) 4.1 23:17:37 10° WSW 23:23:30 59° NNW 23:30:22 10° NE
SL-16 R/B 3.4 23:19:38 10° NW 23:24:25 29° WSW 23:26:08 24° SW
Lacrosse 5 3.0 23:20:25 10° WNW 23:24:40 28° SW 23:24:40 28° SW
Cosmos 2322 3.6 23:21:52 10° NNW 23:27:36 90° WSW 23:29:31 44° SSE
Cosmos 1378 Rocket 3.5 23:23:35 10° N 23:28:04 89° ENE 23:28:49 62° SSE
NOSS 3-2 (C) 3.7 23:23:21 10° SW 23:29:16 73° NW 23:36:10 10° NE
Cosmos 1833 4.2 23:28:45 46° SSE 23:30:12 61° ESE 23:35:48 10° NE
COSMOS 2487 3.1 23:32:14 44° ENE 23:32:14 44° ENE 23:34:55 10° NNE
GENESIS II 4.2 23:30:11 10° NW 23:34:13 77° NE 23:34:38 67° ESE
Cosmos 2219 Rocket 2.2 23:30:25 10° NNW 23:36:09 77° ENE 23:38:19 39° SE
Cosmos 2084 Rocket 3.4 23:35:29 51° SW 23:36:31 83° NW 23:40:52 10° NE
Tsikada Rocket 4.3 23:30:59 10° NNW 23:37:13 58° W 23:39:45 35° SSW
Cosmos 2082 Rocket 4.4 23:34:15 10° W 23:38:47 24° NW 23:43:20 10° NNE
EO 1 Del DPAF 3.5 23:35:47 10° N 23:39:30 58° WNW 23:39:56 53° WSW
Terra 4.4 23:40:24 10° W 23:41:27 11° W 23:42:31 10° WNW
Cosmos 1975 Rocket 3.7 23:37:05 10° N 23:41:27 46° ENE 23:42:25 40° ESE
Cosmos 2333 4.2 23:36:11 10° NNW 23:42:00 74° WSW 23:43:44 46° S
Cosmos 1242 Rocket 3.5 23:42:55 10° NNW 23:46:07 36° W 23:46:07 36° W
Cosmos 2322 Rocket 3.6 23:42:07 10° NW 23:46:36 24° WSW 23:48:01 22° SW
YAOGAN 11 4.3 23:48:26 51° SE 23:49:27 68° ENE 23:54:02 10° N
ERBS 3.3 23:46:56 10° WNW 23:50:08 44° NNE 23:51:02 34° ENE
Helios 1A 2.9 23:49:48 66° SE 23:50:20 80° ENE 23:54:35 10° NNW
SL-16 R/B 4.2 23:47:01 10° NNW 23:51:40 25° NE 23:56:17 10° E
SL-16 R/B 4.3 23:47:19 10° ESE 23:52:15 25° NE 23:57:10 10° N
Cosmos 1486 Rocket 4.0 23:52:11 52° S 23:53:18 69° ESE 23:58:30 10° NNE
Cosmos 1544 3.4 23:54:38 55° ENE 23:54:38 55° ENE 23:58:00 10° NNE
Meteor 1-11 Rocket 4.4 23:51:38 27° SW 23:54:24 47° WNW 23:59:58 10° N
